Weather History for Rugby, ND

Change the Weather History Date:

Thursday, January 17, 2013

  Actual Average Record
Temperature  
Mean Temperature 6 °F -  
Max Temperature 14 °F 16 °F 43 °F (1972)
Min Temperature -2 °F -5 °F -34 °F (1962)
Degree Days  
Heating Degree Days 59    
Moisture  
Dew Point 3 °F    
Average Humidity 83    
Maximum Humidity 93    
Minimum Humidity 67    
Precipitation  
Precipitation 0.03 in - - ()
Sea Level Pressure  
Sea Level Pressure 30.22 in    
Wind  
Wind Speed 8 mph (SW)    
Max Wind Speed 20 mph    
Max Gust Speed 22 mph    
Visibility 10 miles    
Events Snow    
Averages and records for this station are not official NWS values.
T = Trace of Precipitation, MM = Missing Value Source: NWS Daily Summary

Daily Weather History Graph

Daily Weather History Graph

Search for Another Location

Airport:

Trip Planner

Search our weather history database for the weather conditions in past years. The results will help you decide how hot, cold, wet, or windy it might be!

Date:

Astronomy

Jan. 17, 2013 Rise Set
Actual Time 8:24 AM CST 5:16 PM CST
Civil Twilight 7:49 AM CST 5:51 PM CST
Nautical Twilight 7:10 AM CST 6:30 PM CST
Astronomical Twilight 6:33 AM CST 7:07 PM CST
Moon 10:57 AM CST (1/17) No Moon Set
Length of Visible Light 10h 02m
Length of Day
8h 51m
Waxing Crescent, 38% of the Moon is Illuminated
Jan 17
Waxing Crescent
Jan 18
First Quarter
Jan 26
Full
Feb 3
Last Quarter
Feb 10
New

Hourly Weather History & Observations

Time (CST) Temp. Windchill Dew Point Humidity Pressure Visibility Wind Dir Wind Speed Gust Speed Precip Events Conditions
12:15 AM 10.4 °F 2.2 °F 6.8 °F 85% 30.14 in 10.0 mi South 4.6 mph - N/A   Overcast
12:35 AM 10.4 °F 2.2 °F 8.6 °F 92% 30.14 in 10.0 mi SSW 4.6 mph - N/A   Overcast
12:55 AM 10.4 °F 2.2 °F 8.6 °F 92% 30.15 in 10.0 mi SSW 4.6 mph - N/A   Overcast
1:15 AM 12.2 °F 4.3 °F 10.4 °F 92% 30.16 in 10.0 mi SW 4.6 mph - N/A   Overcast
1:35 AM 14.0 °F 5.1 °F 10.4 °F 86% 30.16 in 10.0 mi SW 5.8 mph - N/A   Overcast
1:55 AM 14.0 °F 2.9 °F 12.2 °F 93% 30.17 in 10.0 mi NW 8.1 mph - N/A   Overcast
2:15 AM 14.0 °F 2.0 °F 10.4 °F 86% 30.18 in 10.0 mi NW 9.2 mph - N/A   Overcast
2:35 AM 12.2 °F -0.2 °F 8.6 °F 85% 30.18 in 10.0 mi NW 9.2 mph - N/A   Overcast
3:35 AM 12.2 °F -3.1 °F 8.6 °F 85% 30.20 in 10.0 mi NW 13.8 mph - N/A   Overcast
3:55 AM 14.0 °F -2.0 °F 8.6 °F 79% 30.21 in 10.0 mi NW 16.1 mph - N/A   Overcast
4:15 AM 12.2 °F -4.3 °F 8.6 °F 85% 30.22 in 10.0 mi NNW 16.1 mph - N/A   Overcast
4:35 AM 10.4 °F -7.2 °F 6.8 °F 85% 30.22 in 10.0 mi NNW 17.3 mph 21.9 mph N/A   Overcast
4:55 AM 10.4 °F -7.2 °F 6.8 °F 85% 30.22 in 10.0 mi NNW 17.3 mph - N/A   Mostly Cloudy
5:15 AM 10.4 °F -8.2 °F 5.0 °F 79% 30.23 in 10.0 mi NNW 19.6 mph - N/A   Mostly Cloudy
5:35 AM 8.6 °F -8.9 °F 5.0 °F 85% 30.25 in 10.0 mi NNW 16.1 mph - N/A   Mostly Cloudy
5:55 AM 8.6 °F -5.5 °F 1.4 °F 73% 30.25 in 10.0 mi NNW 10.4 mph - N/A   Clear
6:15 AM 5.0 °F -10.0 °F -0.4 °F 78% 30.26 in 10.0 mi NNW 10.4 mph - N/A   Clear
6:35 AM 5.0 °F -9.1 °F -0.4 °F 78% 30.26 in 10.0 mi NNW 9.2 mph - N/A   Partly Cloudy
6:55 AM -0.4 °F -10.4 °F -4.0 °F 85% 30.27 in 10.0 mi WNW 4.6 mph - N/A   Partly Cloudy
7:15 AM -2.2 °F -15.6 °F -5.8 °F 85% 30.28 in 10.0 mi West 6.9 mph - N/A   Clear
7:35 AM -0.4 °F -14.7 °F -4.0 °F 85% 30.28 in 10.0 mi West 8.1 mph - N/A   Clear
7:55 AM -2.2 °F -18.0 °F -4.0 °F 92% 30.29 in 10.0 mi WNW 9.2 mph - N/A   Clear
8:15 AM -2.2 °F -10.4 °F -5.8 °F 85% 30.30 in 10.0 mi WNW 3.5 mph - N/A   Clear
8:35 AM -2.2 °F -12.5 °F -4.0 °F 92% 30.31 in 10.0 mi NW 4.6 mph - N/A   Clear
8:55 AM -2.2 °F -12.5 °F -5.8 °F 85% 30.32 in 10.0 mi WNW 4.6 mph - N/A   Clear
9:15 AM -2.2 °F -10.4 °F -4.0 °F 92% 30.32 in 10.0 mi NNW 3.5 mph - N/A   Clear
9:35 AM -2.2 °F -12.5 °F -7.6 °F 78% 30.33 in 10.0 mi North 4.6 mph - N/A   Clear
9:55 AM -0.4 °F -8.3 °F -2.2 °F 92% 30.34 in 10.0 mi North 3.5 mph - N/A   Clear
10:15 AM 1.4 °F - -0.4 °F 92% 30.34 in 10.0 mi Calm Calm - N/A   Partly Cloudy
10:35 AM 1.4 °F -8.3 °F -2.2 °F 85% 30.34 in 10.0 mi SW 4.6 mph - N/A   Partly Cloudy
10:55 AM 1.4 °F -8.3 °F -0.4 °F 92% 30.34 in 10.0 mi SSW 4.6 mph - N/A   Clear
11:15 AM 3.2 °F -6.2 °F -0.4 °F 85% 30.34 in 10.0 mi SW 4.6 mph - N/A   Clear
11:35 AM 5.0 °F -2.1 °F -0.4 °F 78% 30.34 in 10.0 mi SSW 3.5 mph - N/A   Scattered Clouds
11:55 AM 5.0 °F - -0.4 °F 78% 30.33 in 10.0 mi Calm Calm - N/A   Scattered Clouds
12:15 PM 5.0 °F -2.1 °F -2.2 °F 72% 30.32 in 10.0 mi SW 3.5 mph - N/A   Partly Cloudy
12:35 PM 6.8 °F - -2.2 °F 67% 30.32 in 10.0 mi Calm Calm - N/A   Clear
12:55 PM 6.8 °F - -0.4 °F 72% 30.31 in 10.0 mi Calm Calm - N/A   Clear
1:15 PM 6.8 °F - -0.4 °F 72% 30.31 in 10.0 mi Calm Calm - N/A   Partly Cloudy
1:35 PM 6.8 °F -2.0 °F -0.4 °F 72% 30.30 in 10.0 mi SW 4.6 mph - N/A   Partly Cloudy
1:55 PM 6.8 °F -3.5 °F -0.4 °F 72% 30.29 in 10.0 mi SSW 5.8 mph - N/A   Scattered Clouds
2:15 PM 6.8 °F -3.5 °F -0.4 °F 72% 30.28 in 10.0 mi SSW 5.8 mph - N/A   Scattered Clouds
2:35 PM 6.8 °F -3.5 °F -0.4 °F 72% 30.27 in 10.0 mi SSW 5.8 mph - N/A   Clear
2:55 PM 8.6 °F -1.3 °F 1.4 °F 73% 30.26 in 10.0 mi SSW 5.8 mph - N/A   Clear
3:15 PM 8.6 °F -2.6 °F 1.4 °F 73% 30.25 in 10.0 mi South 6.9 mph - N/A   Scattered Clouds
3:35 PM 8.6 °F -1.3 °F 1.4 °F 73% 30.25 in 10.0 mi SSW 5.8 mph - N/A   Mostly Cloudy
3:55 PM 8.6 °F -1.3 °F 1.4 °F 73% 30.24 in 10.0 mi South 5.8 mph - N/A   Mostly Cloudy
4:55 PM 8.6 °F -1.3 °F 3.2 °F 79% 30.21 in 10.0 mi SSE 5.8 mph - N/A Snow Light Snow
5:35 PM 8.6 °F -3.7 °F 3.2 °F 79% 30.21 in 10.0 mi SE 8.1 mph - N/A   Overcast
6:35 PM 8.6 °F -4.7 °F 5.0 °F 85% 30.17 in 8.0 mi SSE 9.2 mph - N/A   Overcast
7:15 PM 8.6 °F -6.3 °F 5.0 °F 85% 30.14 in 6.0 mi SSE 11.5 mph - N/A Snow Light Snow
7:55 PM 10.4 °F -3.3 °F 6.8 °F 85% 30.11 in 5.0 mi SE 10.4 mph - N/A Snow Light Snow
8:15 PM 10.4 °F -4.8 °F 6.8 °F 85% 30.09 in 6.0 mi SE 12.7 mph - N/A Snow Light Snow
8:55 PM 10.4 °F -5.4 °F 6.8 °F 85% 30.06 in 8.0 mi SE 13.8 mph - 0.03 in Snow Light Snow
9:15 PM 10.4 °F -5.4 °F 8.6 °F 92% 30.03 in 10.0 mi SE 13.8 mph - N/A   Overcast
9:35 PM 10.4 °F -4.1 °F 8.6 °F 92% 30.01 in 10.0 mi SE 11.5 mph - N/A   Overcast
9:55 PM 12.2 °F -3.1 °F 8.6 °F 85% 29.99 in 10.0 mi SE 13.8 mph 20.7 mph N/A   Overcast
11:15 PM 14.0 °F -2.0 °F 10.4 °F 86% 29.92 in 10.0 mi ESE 16.1 mph - N/A   Overcast
11:35 PM 14.0 °F -2.0 °F 10.4 °F 86% 29.92 in 10.0 mi SE 16.1 mph - N/A   Overcast
11:55 PM 14.0 °F -1.4 °F 10.4 °F 86% 29.90 in 10.0 mi SE 15.0 mph 20.7 mph N/A   Overcast